Location: Vancouver
(49.2500°N, 123.1330°W)
Time: 23:44:08
(UTC-07:00)

ERS-2 - Visible Passes

Search period start: 01 September 2014 00:00
Search period end: 11 September 2014 00:00
Orbit: 530 x 537 km, 98.6° (Epoch: 31 August)

Date Brightness Start Highest point End Pass type
(mag) Time Alt. Az. Time Alt. Az. Time Alt. Az.
01 Sep 2.5 20:55:05 10° NNE 20:58:48 45° E 21:02:29 10° S visible
01 Sep 5.0 22:30:04 10° NNW 22:32:49 19° WNW 22:35:33 10° WSW visible
02 Sep 2.8 20:45:53 10° NNE 20:49:27 35° E 20:52:59 10° SSE visible
02 Sep 4.7 22:20:31 10° N 22:23:35 23° WNW 22:26:39 10° WSW visible
03 Sep 3.2 20:36:43 10° NE 20:40:04 28° E 20:43:23 10° SSE visible
03 Sep 4.3 22:11:01 10° N 22:14:20 28° WNW 22:17:39 10° SW visible
04 Sep 3.5 20:27:36 10° NE 20:30:40 22° E 20:33:42 10° SSE visible
04 Sep 3.9 22:01:32 10° N 22:05:04 35° WNW 22:08:34 10° SW visible
05 Sep 3.7 20:18:34 10° NE 20:21:14 18° E 20:23:53 10° SE visible
05 Sep 3.4 21:52:05 10° N 21:55:46 44° WNW 21:59:25 10° SW visible
06 Sep 2.9 21:42:40 10° N 21:46:27 57° WNW 21:50:12 10° SSW visible
07 Sep 2.4 21:33:15 10° NNE 21:37:06 74° WNW 21:40:55 10° SSW visible
08 Sep 2.1 21:23:52 10° NNE 21:27:44 87° ESE 21:31:34 10° SSW visible
08 Sep 5.5 23:00:08 10° NW 23:01:26 11° WNW 23:02:43 10° WNW visible
09 Sep 2.1 21:14:30 10° NNE 21:18:21 67° ESE 21:22:09 10° S visible
09 Sep 5.3 22:50:08 10° NNW 22:52:10 14° WNW 22:54:12 10° W visible
10 Sep 2.3 21:05:10 10° NNE 21:08:56 52° ESE 21:12:40 10° S visible
10 Sep 5.1 22:40:21 10° NNW 22:42:53 17° WNW 22:45:24 10° WSW visible
